Regional Weather Roundup
Issued by NWS

Home | Current Version | Previous Version | Text Only | Print | Product List | Glossary On
Versions: 1 2 3 4 5 6 7 8 9 10 11 12 13 14 15 16 17 18 19 20 21 22 23 24 25 26 27 28 29 30 31 32 33 34 35 36 37 38 39 40 41 42 43 44 45 46 47 48 49 50
147
ASUS44 KFWD 220501
RWRTX
NORTH TEXAS HOURLY WEATHER ROUNDUP
NATIONAL WEATHER SERVICE FORT WORTH TX
1100 PM CST TUE FEB 21 2017

NOTE: "FAIR" INDICATES FEW OR NO CLOUDS BELOW 12,000 FEET WITH NO
SIGNIFICANT WEATHER AND/OR OBSTRUCTIONS TO VISIBILITY.

TXZ118-119-220600-
DALLAS/FORT WORTH METROPLEX

CITY           SKY/WX    TMP DP  RH WIND       PRES   REMARKS
DFW AIRPORT    CLEAR     62  40  44 NW13      29.94S
DALLAS LOVE    CLEAR     58  46  64 CALM      29.95S
FTW MEACHAM    CLEAR     58  39  49 NW3       29.96S
DAL-EXECUTIVE  CLEAR     56  42  59 NW7       29.95S
FTW-ALLIANCE   CLEAR     53  39  59 CALM      29.96S
FTW-NAS-JRB    CLEAR     56  45  66 NW6       29.97S
FTW-SPINKS     CLEAR     56  40  56 W3        29.98S
ARLINGTON      CLEAR     56  39  53 W3        29.96S
GRAND PRAIRIE  CLEAR     63  37  37 W5        29.98R
ADDISON        CLEAR     57  43  59 NW6       29.97S
MESQUITE       CLEAR     59  46  62 W5        29.95S
LANCASTER      CLEAR     51  43  73 NW3       29.96F
$$

TXZ091>094-102>105-117-120-121-131>134-220600-
NORTH CENTRAL TEXAS

CITY           SKY/WX    TMP DP  RH WIND       PRES   REMARKS
SHRMAN/DENISON CLEAR     53  44  71 CALM      29.97S
GAINESVILLE    CLEAR     50  38  64 CALM      29.98S
BOWIE          CLEAR     51  42  71 CALM      29.96F
BRIDGEPORT     CLEAR     51  40  66 SW6       29.99F
DECATUR        CLEAR     58  37  44 W5        29.97F
DENTON         CLEAR     51  43  74 NW3       29.96S
MCKINNEY       CLEAR     50  47  89 NW5       29.95S
BONHAM         CLEAR     54  46  76 W6        29.95S
ROCKWALL       CLEAR     58  48  68 NW3       29.96R
TERRELL        CLEAR     53  47  79 CALM      29.95S
WAXAHACHIE     CLEAR     56  42  59 W7        29.98R
CLEBURNE       CLEAR     55  41  58 NW3       29.99S
GRANBURY       CLEAR     50  41  71 CALM      29.99S
$$

TXZ083>090-098>101-113>116-127>130-139>142-154-155-220600-
WESTERN NORTH TEXAS

CITY           SKY/WX    TMP DP  RH WIND       PRES   REMARKS
WICHITA FALLS  CLEAR     55  41  59 S6        29.95F
WF-KICKAPOO    CLEAR     55  42  62 CALM      29.97S
VERNON         CLEAR     53  40  61 SW6       29.97S
ABILENE        CLEAR     50  36  58 S10       30.01S
ABILENE-DYESS  CLEAR     45  38  77 SW3       29.99S
GRAHAM         CLEAR     46  41  81 CALM      29.98S
CISCO          CLEAR     59  36  41 SE6       30.01S
RANGER         CLEAR     48  34  57 CALM      30.01R
MINERAL WELLS  CLEAR     52  37  56 CALM      29.96F
STEPHENVILLE   CLEAR     52  37  56 CALM      30.02S
COMANCHE       CLEAR     62  35  36 CALM      30.00F
BROWNWOOD      CLEAR     46  43  87 CALM      30.01S
COLEMAN        CLEAR     50  39  65 NW3       30.01S
$$

TXZ143>147-156>162-174-175-220600-
CENTRAL TEXAS

CITY           SKY/WX    TMP DP  RH WIND       PRES   REMARKS
WACO           CLEAR     47  43  86 W7        29.97S
WACO-TSTC      CLEAR     55  41  58 NW7       29.96F
WACO-MCGREGOR  CLEAR     54  42  64 W7        29.97F
HILLSBORO      CLEAR     54  44  68 N6        29.96F
CORSICANA      CLEAR     54  48  80 W8        29.96S
MEXIA          CLEAR     58  45  61 W7        29.95S
HEARNE         CLEAR     51  49  93 CALM      29.97S
CAMERON        CLEAR     60  44  55 W5        29.96S
KILLEEN        CLEAR     59  37  42 N7        29.98S
KILLEEN-SKYLRK CLEAR     56  39  53 W5        29.98F
FORT HOOD      CLEAR     58  38  46 W5        29.95F
HAMILTON       CLEAR     57  38  48 NW9       30.01S
LAMPASAS       CLEAR     60  38  43 NW7       29.98F
$$

TXZ095>097-106>112-122>126-135>138-148>153-164>167-220600-
EAST TEXAS

CITY           SKY/WX    TMP DP  RH WIND       PRES   REMARKS
PARIS          CLEAR     54  48  82 W5        29.93S
SULPHUR SPRNGS CLEAR     55  51  87 CALM      29.96S
MOUNT PLEASANT CLEAR     56  50  80 CALM      29.92F
GILMER         CLEAR     54  52  93 CALM      29.91F
MINEOLA        CLEAR     52  50  93 CALM      29.93S
TYLER          CLEAR     55  51  86 NW5       29.93S
LONGVIEW       CLEAR     56  53  90 CALM      29.90S
MARSHALL       CLOUDY    63  53  69 NW5       29.91F
ATHENS         CLEAR     52  52 100 CALM      29.94R
PALESTINE      CLEAR     53  52  96 CALM      29.95S
JACKSONVILLE   CLEAR     61  51  69 NW3       29.94S
HENDERSON      CLEAR     56  51  84 CALM      29.92S
CENTER         PTCLDY    62  56  82 N5        29.91S
NACOGDOCHES    CLEAR     52  50  93 CALM      29.90S
LUFKIN         CLEAR     54  51  90 CALM      29.91S
$$

SUPPLEMENTAL OBSERVATIONS (CENTRAL)

CITY           SKY/WX    TMP DP  RH WIND       PRES   REMARKS
$$

SUPPLEMENTAL OBSERVATIONS (WEST)

CITY           SKY/WX    TMP DP  RH WIND       PRES   REMARKS
$$

SUPPLEMENTAL OBSERVATIONS (EAST)

CITY           SKY/WX    TMP DP  RH WIND       PRES   REMARKS
$$

SUPPLEMENTAL OBSERVATIONS ARE A COLLECTION OF AUTOMATED INSTRUMENTS
THAT ARE MAINTAINED BY A VARIETY OF FEDERAL AND STATE AGENCIES.
CERTAIN ELEMENTS...SUCH AS HUMIDITY VALUES AND SUSTAINED WIND
SPEEDS...MAY BE APPROXIMATED.





USA.gov is the U.S. government's official web portal to all federal, state and local government web resources and services.